TimeCDT,TemperatureF,Dew PointF,Humidity,Sea Level PressureIn,VisibilityMPH,Wind Direction,Wind SpeedMPH,Gust SpeedMPH,PrecipitationIn,Events,Conditions,WindDirDegrees,DateUTC
12:15 AM,55.4,37.4,51,29.99,10.0,North,9.2,-,N/A,,Clear,350,2012-10-31 05:15:00
12:35 AM,59.0,35.6,42,29.99,10.0,NNW,8.1,-,N/A,,Clear,330,2012-10-31 05:35:00
12:55 AM,53.6,35.6,51,29.99,10.0,NNW,6.9,-,N/A,,Clear,340,2012-10-31 05:55:00
1:15 AM,51.8,35.6,54,29.99,10.0,North,10.4,-,N/A,,Clear,350,2012-10-31 06:15:00
1:35 AM,53.6,35.6,51,29.99,10.0,North,8.1,-,N/A,,Clear,350,2012-10-31 06:35:00
1:55 AM,53.6,35.6,51,29.99,10.0,North,8.1,-,N/A,,Clear,360,2012-10-31 06:55:00
2:15 AM,51.8,33.8,50,30.00,10.0,WSW,4.6,-,N/A,,Clear,250,2012-10-31 07:15:00
2:35 AM,53.6,35.6,51,30.00,10.0,NNW,3.5,-,N/A,,Clear,340,2012-10-31 07:35:00
2:55 AM,51.8,35.6,54,30.01,10.0,North,4.6,-,N/A,,Clear,350,2012-10-31 07:55:00
3:15 AM,53.6,37.4,54,30.01,10.0,North,10.4,-,N/A,,Clear,350,2012-10-31 08:15:00
3:35 AM,51.8,37.4,58,30.02,10.0,North,9.2,-,N/A,,Clear,360,2012-10-31 08:35:00
3:55 AM,51.8,35.6,54,30.02,10.0,NNW,3.5,-,N/A,,Clear,340,2012-10-31 08:55:00
4:15 AM,50.0,35.6,58,30.02,10.0,North,8.1,-,N/A,,Clear,350,2012-10-31 09:15:00
4:35 AM,48.2,35.6,62,30.02,10.0,North,8.1,-,N/A,,Clear,360,2012-10-31 09:35:00
4:55 AM,50.0,37.4,62,30.02,10.0,North,9.2,-,N/A,,Clear,360,2012-10-31 09:55:00
5:15 AM,50.0,37.4,62,30.03,10.0,North,5.8,-,N/A,,Clear,360,2012-10-31 10:15:00
5:35 AM,50.0,37.4,62,30.04,10.0,North,5.8,-,N/A,,Clear,350,2012-10-31 10:35:00
5:55 AM,50.0,37.4,62,30.04,10.0,NNW,6.9,-,N/A,,Clear,340,2012-10-31 10:55:00
6:15 AM,50.0,35.6,58,30.04,10.0,NNW,9.2,-,N/A,,Clear,340,2012-10-31 11:15:00
6:35 AM,48.2,35.6,62,30.04,10.0,NNW,6.9,-,N/A,,Clear,330,2012-10-31 11:35:00
6:55 AM,46.4,35.6,66,30.04,10.0,NW,8.1,-,N/A,,Clear,320,2012-10-31 11:55:00
7:15 AM,46.4,35.6,66,30.05,10.0,North,8.1,-,N/A,,Clear,350,2012-10-31 12:15:00
7:35 AM,46.4,35.6,66,30.05,10.0,North,8.1,-,N/A,,Clear,360,2012-10-31 12:35:00
7:55 AM,46.4,35.6,66,30.06,10.0,North,6.9,-,N/A,,Clear,350,2012-10-31 12:55:00
8:15 AM,46.4,35.6,66,30.06,10.0,NNW,5.8,-,N/A,,Clear,330,2012-10-31 13:15:00
8:35 AM,46.4,35.6,66,30.07,10.0,NNW,9.2,-,N/A,,Clear,340,2012-10-31 13:35:00
8:55 AM,50.0,37.4,62,30.07,10.0,North,11.5,-,N/A,,Clear,350,2012-10-31 13:55:00
9:15 AM,51.8,37.4,58,30.08,10.0,North,11.5,-,N/A,,Clear,360,2012-10-31 14:15:00
9:35 AM,53.6,37.4,54,30.09,10.0,North,10.4,-,N/A,,Clear,350,2012-10-31 14:35:00
9:55 AM,59.0,37.4,45,30.09,10.0,North,10.4,-,N/A,,Clear,350,2012-10-31 14:55:00
10:15 AM,60.8,37.4,42,30.10,10.0,North,8.1,-,N/A,,Clear,350,2012-10-31 15:15:00
10:35 AM,60.8,37.4,42,30.11,10.0,North,4.6,-,N/A,,Clear,360,2012-10-31 15:35:00
10:55 AM,62.6,37.4,39,30.11,10.0,Calm,Calm,-,N/A,,Clear,0,2012-10-31 15:55:00
11:15 AM,64.4,37.4,37,30.11,10.0,Calm,Calm,-,N/A,,Clear,0,2012-10-31 16:15:00
11:35 AM,68.0,37.4,33,30.11,10.0,ESE,5.8,-,N/A,,Clear,110,2012-10-31 16:35:00
11:55 AM,69.8,37.4,31,30.11,10.0,Calm,Calm,-,N/A,,Clear,0,2012-10-31 16:55:00
12:15 PM,69.8,37.4,31,30.11,10.0,Calm,Calm,-,N/A,,Clear,0,2012-10-31 17:15:00
12:35 PM,71.6,37.4,29,30.11,10.0,Calm,Calm,-,N/A,,Clear,0,2012-10-31 17:35:00
1:15 PM,71.6,37.4,29,30.09,10.0,Calm,Calm,-,N/A,,Clear,0,2012-10-31 18:15:00
1:35 PM,73.4,37.4,27,30.08,10.0,South,4.6,-,N/A,,Clear,170,2012-10-31 18:35:00
1:55 PM,73.4,37.4,27,30.07,10.0,SSE,5.8,-,N/A,,Clear,160,2012-10-31 18:55:00
2:15 PM,75.2,37.4,25,30.06,10.0,SE,3.5,-,N/A,,Clear,140,2012-10-31 19:15:00
2:35 PM,75.2,37.4,25,30.06,10.0,SSE,3.5,-,N/A,,Clear,150,2012-10-31 19:35:00
2:55 PM,77.0,37.4,24,30.05,10.0,Calm,Calm,-,N/A,,Clear,0,2012-10-31 19:55:00
3:15 PM,77.0,37.4,24,30.04,10.0,Calm,Calm,-,N/A,,Clear,0,2012-10-31 20:15:00
3:35 PM,78.8,35.6,21,30.04,10.0,Calm,Calm,-,N/A,,Clear,0,2012-10-31 20:35:00
3:55 PM,77.0,35.6,22,30.03,10.0,Calm,Calm,-,N/A,,Clear,0,2012-10-31 20:55:00
4:15 PM,77.0,35.6,22,30.03,10.0,South,3.5,-,N/A,,Clear,180,2012-10-31 21:15:00
4:55 PM,78.8,35.6,21,30.02,10.0,ESE,4.6,-,N/A,,Clear,120,2012-10-31 21:55:00
5:15 PM,78.8,35.6,21,30.02,10.0,SSE,4.6,-,N/A,,Clear,160,2012-10-31 22:15:00
5:35 PM,78.8,35.6,21,30.02,10.0,South,4.6,-,N/A,,Clear,180,2012-10-31 22:35:00
6:15 PM,77.0,35.6,22,30.02,10.0,SSE,3.5,-,N/A,,Clear,150,2012-10-31 23:15:00
6:35 PM,75.2,37.4,25,30.02,10.0,South,3.5,-,N/A,,Clear,170,2012-10-31 23:35:00
6:55 PM,71.6,37.4,29,30.01,10.0,SSE,3.5,-,N/A,,Clear,160,2012-10-31 23:55:00
7:15 PM,69.8,37.4,31,30.01,10.0,SSE,5.8,-,N/A,,Clear,160,2012-11-01 00:15:00
7:35 PM,66.2,37.4,35,30.02,10.0,South,6.9,-,N/A,,Clear,170,2012-11-01 00:35:00
7:55 PM,66.2,37.4,35,30.02,10.0,South,6.9,-,N/A,,Clear,170,2012-11-01 00:55:00
8:15 PM,64.4,37.4,37,30.02,10.0,South,8.1,-,N/A,,Clear,170,2012-11-01 01:15:00
8:35 PM,64.4,37.4,37,30.03,10.0,South,6.9,-,N/A,,Clear,170,2012-11-01 01:35:00
8:55 PM,62.6,37.4,39,30.03,10.0,SE,6.9,-,N/A,,Clear,140,2012-11-01 01:55:00
9:15 PM,64.4,37.4,37,30.02,10.0,SSE,6.9,-,N/A,,Clear,150,2012-11-01 02:15:00
9:35 PM,60.8,37.4,42,30.03,10.0,SSE,8.1,-,N/A,,Clear,150,2012-11-01 02:35:00
9:55 PM,60.8,37.4,42,30.03,10.0,SSE,6.9,-,N/A,,Clear,150,2012-11-01 02:55:00
10:15 PM,60.8,37.4,42,30.03,10.0,SE,6.9,-,N/A,,Clear,130,2012-11-01 03:15:00
10:35 PM,60.8,37.4,42,30.04,2.5,ESE,8.1,-,N/A,,Haze,120,2012-11-01 03:35:00
10:55 PM,57.2,37.4,48,30.04,5.0,East,9.2,-,N/A,,Haze,100,2012-11-01 03:55:00
11:15 PM,59.0,37.4,45,30.04,10.0,ESE,6.9,-,N/A,,Clear,120,2012-11-01 04:15:00
11:35 PM,55.4,39.2,54,30.04,10.0,East,8.1,-,N/A,,Clear,100,2012-11-01 04:35:00
11:55 PM,55.4,41.0,58,30.04,10.0,ESE,9.2,-,N/A,,Clear,110,2012-11-01 04:55:00